Location: Ku?niki
(51.4449°N, 17.8974°E)
Time: 21:38:00
(UTC+00:00)

POLYITAN 1 - Pass Details

Date: 07 July 2022
Orbit: 586 x 605 km, 98.0° (Epoch: 13 August)

Event Time Altitude Azimuth Distance (km) Brightness Sun altitude
Rises 23:13:44 0° 32° (NNE) 2,868 ? -15.9°
Reaches altitude 10° 23:17:27 10° 66° (ENE) 1,960 ? -15.9°
Maximum altitude 23:18:55 12° 86° (E) 1,857 ? -15.8°
Drops below altitude 10° 23:20:23 10° 107° (ESE) 1,956 ? -15.8°
Enters shadow 23:22:01 - 125° (SE) 2,273 ? -15.8°
